Weather in O'zbekiston

Uzbekistan     41°18′19″N   69°28′06″E
temp.,
°C
wind,
m/s
gust,
m/s
humid.,
%
clouds,
%
prec.,
mm/h
press.,
hPa
HPBL,
m
20 january, wed
wed2023:00+9nnw0177100 2.9 102022
02:00+8ese3374100 0.8 102046
05:00+8sse456857 1.4 102387
08:00+8se236264 0.0 102430
11:00+12e244682 0.0 1023183
14:00+15sse1227100 0.0 1020879
17:00+12n1238100 0.0 102022
20:00+9ene123739 0.0 102022
21 january, thu
thu2123:00+7ene113219 0.0 101822
02:00+6ne12300 0.0 101622
05:00+6ne23270 0.0 101422
08:00+6ene12260 0.0 101222
11:00+12n112122 0.0 1010105
14:00+13wnw222167 0.0 1007164
17:00+12nne333283 0.0 100538
20:00+9w3734100 0.0 1007154
22 january, fri
fri2223:00+8nw1247100 0.0 100824
02:00+6s2684100 1.8 1010523
05:00+3wsw6892100 5.9 1014535
08:00−4wnw5791100 2.4 1025510
11:00−3wnw5690100 4.9 1031498
14:00−4wnw3489100 0.9 1032407
17:00−4ne1291100 1.8 1034237
20:00−5nne348676 0.1 103765
23 january, sat
sat2323:00−5e117784 0.1 103821
02:00−5ssw3582100 0.0 1039323
05:00−5s4689100 0.1 1039415
08:00−5sse3672100 0.1 1040204
11:00−2s4757100 0.1 10391334
14:00−2s3455100 0.0 10381088
17:00−2sse4764100 0.0 1038391
20:00−2se3569100 0.0 1040118
24 january, sun
sun2423:00−2se3375100 0.0 104058
02:00−2e117694 0.0 104024
05:00−4ene227484 0.0 104024
08:00−4ene22660 0.0 104131
11:000nne22590 0.0 1039189
14:00+2n22530 0.0 1036454
17:000nnw12660 0.0 103621
20:00−3ese12710 0.0 103621